This demonstration page uses our WeatherBlox Daily Observations layout. Learn more.

Left ArrowRight Arrow

36.17497, -115.13722

Hourly Observations for August 30, 2021

Temp ( °F °C ) Dew Point ( °F °C ) Humidity (%) Winds ( mph kmh ) Pressure ( in mb ) Visibility ( mi km ) Precip ( " mm )
12:53 am 00:53 Clear 92 33.3 50 10 24 24 N 7 11 29.71 1006 10 16 0.00 0.00
1:53 am 01:53 Clear 89 31.7 50 10 26 26 Calm 29.70 1006 10 16 0.00 0.00
2:53 am 02:53 Clear 87 30.6 50 10 28 28 WNW 5 7 29.70 1006 10 16 0.00 0.00
3:53 am 03:53 Clear 85 29.4 51 10.6 31 31 N 5 7 29.70 1006 10 16 0.00 0.00
4:53 am 04:53 Clear 84 28.9 51 10.6 32 32 NNW 8 13 29.70 1006 10 16 0.00 0.00
5:53 am 05:53 Clear 82 27.8 51 10.6 34 34 NW 6 9 29.72 1007 10 16 0.00 0.00
6:53 am 06:53 Sunny 84 28.9 49 9.4 30 30 NW 3 6 29.75 1007 10 16 0.00 0.00
7:53 am 07:53 Sunny 89 31.7 50 10 26 26 NNW 3 6 29.75 1008 10 16 0.00 0.00
8:53 am 08:53 Sunny 93 33.9 51 10.6 24 24 E 7 11 29.75 1008 10 16 0.00 0.00
9:53 am 09:53 Sunny 94 34.4 51 10.6 23 23 SE 8 13 29.76 1008 10 16 0.00 0.00
10:53 am 10:53 Sunny 96 35.6 51 10.6 22 22 VRB 5 7 29.75 1008 10 16 0.00 0.00
11:53 am 11:53 Sunny 101 38.3 52 11.1 19 19 ESE 8 13 29.72 1007 10 16 0.00 0.00
12:53 pm 12:53 Sunny 103 39.4 51 10.6 18 18 ESE 10 17 29.70 1006 10 16 0.00 0.00
1:53 pm 13:53 Sunny 100 37.8 51 10.6 19 19 SE 8 13 29.69 1005 10 16 0.00 0.00
2:53 pm 14:53 Sunny 101 38.3 51 10.6 19 19 SSE 9 15 29.66 1004 10 16 0.00 0.00
3:53 pm 15:53 Sunny 101 38.3 47 8.3 16 16 SW 16 26 29.64 1004 10 16 0.00 0.00
4:53 pm 16:53 Sunny 102 38.9 46 7.8 15 15 SW 8 13 29.63 1003 10 16 0.00 0.00
5:53 pm 17:53 Sunny 99 37.2 47 8.3 17 17 S 15 24 29.62 1003 10 16 0.00 0.00
6:53 pm 18:53 Sunny 99 37.2 46 7.8 16 16 S 10 17 29.61 1003 10 16 0.00 0.00
7:53 pm 19:53 Clear 96 35.6 47 8.3 19 19 SE 10 17 29.64 1004 10 16 0.00 0.00
8:53 pm 20:53 Clear 95 35 49 9.4 21 21 S 15 24 29.67 1005 10 16 0.00 0.00
9:53 pm 21:53 Clear 93 33.9 54 12.2 27 27 SSE 12 19 29.69 1005 10 16 0.00 0.00
10:53 pm 22:53 Clear 91 32.8 54 12.2 28 28 SE 8 13 29.69 1006 10 16 0.00 0.00
11:53 pm 23:53 Clear 89 31.7 55 12.8 31 31 SE 6 9 29.70 1006 10 16 0.00 0.00

Powered by AerisWeather